STARLINK-2253, 48596

Orbit data source: Space-Track

STARLINK-2253, 48596 is a payload satellite owned by SpaceX/Seattle (US) in LEO that was launched on Sat, 15 May 2021 UTC via an FALCON 9 launch vehicle from the Air Force Eastern Test Range (AFETR). Payload-class satellites include a variety of spacecraft equipped with specific instruments for various scientific and technological missions. These include communications satellites like Starlink; space stations such as the ISS; scientific satellites like the Hubble; Earth observation satellites from companies like Planet Labs, Umbra, and HawkEye 360; GPS; miniature CubeSats for education and research; and military/defense satellites.

Loading next visibility...
Identifier
48596, 2021-041AV
Orbit
LEO
Country
Flag of USUS
Related business
Manufacturer
SpaceX/Seattle
Mission
Operational Commercial Communications
Bus & Motor
STARLINK, Unknown motor
Mass
260 kg wet, ~248 kg dry
Launch date (UTC)
2021-05-15 (5 years ago)
Launch vehicle
FALCON 9
Launch site
Air Force Eastern Test Range (AFETR)
Object type
Payload
Rocket body
Debris
Shape & HBR
Box + 1 Pan, 10.1 m
Radar Cross Section
13.562 m², Large (>1 m²)

Expand to show TLE details & history
Last TLE update: 1 day ago

TLE from 1 day ago
0 STARLINK-2253
1 48596U 21041AV  25349.79316657  .00003250  00000-0  23701-3 0  9993
2 48596  53.0527 158.2439 0001336  90.6549 269.4593 15.06391340252878
Epoch: 2025-12-15T19:02Z
TLE epoch observation values (Epoch: 2025-12-15T19:02:09.591Z)
Latitude
-0.00003°
Longitude
148.01728°
Altitude
548.126 km
Speed
7.589 km/s
True Right ascension
10h 32m 58s
True Declination
0° 00' 00"
Sunlit
Object was in daylight at epoch
Visualization orbit readout
Latitude
Unknown
Longitude
Unknown
Altitude
Unknown
Speed
Unknown
Apparent Right ascension
Unknown
Apparent Declination
Unknown
Sunlit
N/A
Visualization observer readout
Local Sidereal Time
17:41:37
Azimuth
Unknown
Elevation
Unknown
Doppler factor
Unknown
Orbital elements
Apogee altitude
548.434 km
Perigee altitude
546.584 km
Semi-major axis
6,925.646 km
Eccentricity
0.00013
Inclination
53.0527°
RAAN
158.2439°
Arg. of periapsis
90.6549°
True anomaly
269.44399°
Mean anomaly
269.4593°
Eccentric anomaly
269.45165°
Mean motion
3.76576 °/min
Orbital period
95.6 mins
BSTAR
0.00023701
Loading maneuver chart data...
Computing Atmospheric mass density...
Loading historical data...
Loading historical data...
Loading historical data...
Loading historical data...
Loading historical data...
Loading historical data...
Loading historical data...

Documentation

Showing up to 5 results
|